Weather History for Fayetteville, AR

Change the Weather History Date:

Thursday, January 10, 2013

  Actual Average Record
Temperature  
Mean Temperature 54 °F 35 °F  
Max Temperature 61 °F 46 °F 70 °F (1990)
Min Temperature 47 °F 25 °F -13 °F (1977)
Degree Days  
Heating Degree Days 11 30  
Month to date heating degree days 284 300  
Since 1 July heating degree days 1802 1983  
Growing Degree Days 3 (Base 50)    
Moisture  
Dew Point 48 °F    
Average Humidity 89    
Maximum Humidity 100    
Minimum Humidity 77    
Precipitation  
Precipitation 0.10 in 0.10 in 0.80 in (1955)
Month to date precipitation 0.17 0.94  
Year to date precipitation 0.17 0.94  
Sea Level Pressure  
Sea Level Pressure 30.00 in    
Wind  
Wind Speed 8 mph (East)    
Max Wind Speed 20 mph    
Max Gust Speed 30 mph    
Visibility 9 miles    
Events Rain    
T = Trace of Precipitation, MM = Missing Value Source: NWS Daily Summary

Daily Weather History Graph

Daily Weather History Graph

Search for Another Location

Airport:

Trip Planner

Search our weather history database for the weather conditions in past years. The results will help you decide how hot, cold, wet, or windy it might be!

Date:

Astronomy

Jan. 10, 2013 Rise Set
Actual Time 7:27 AM CST 5:21 PM CST
Civil Twilight 6:59 AM CST 5:49 PM CST
Nautical Twilight 6:27 AM CST 6:21 PM CST
Astronomical Twilight 5:56 AM CST 6:52 PM CST
Moon 6:08 AM CST (1/10) 4:29 PM CST (1/10)
Length of Visible Light 10h 50m
Length of Day
9h 53m
Waning Crescent, 2% of the Moon is Illuminated
Jan 10
Waning Crescent
Jan 11
New
Jan 18
First Quarter
Jan 26
Full
Feb 3
Last Quarter

Hourly Weather History & Observations

Time (CST) Temp. Windchill Dew Point Humidity Pressure Visibility Wind Dir Wind Speed Gust Speed Precip Events Conditions
12:00 AM 48.2 °F - 42.8 °F 82% 30.21 in 10.0 mi East 10.4 mph 16.1 mph 0.00 in Rain Light Rain
12:08 AM 48.2 °F - 42.8 °F 82% 30.20 in 10.0 mi ENE 9.2 mph 20.7 mph 0.00 in Rain Light Rain
12:53 AM 48.0 °F - 44.1 °F 86% 30.17 in 10.0 mi ENE 10.4 mph 18.4 mph 0.01 in   Overcast
1:03 AM 48.2 °F - 44.6 °F 87% 30.17 in 10.0 mi ENE 11.5 mph 17.3 mph N/A   Overcast
1:53 AM 48.0 °F - 44.1 °F 86% 30.17 in 10.0 mi ENE 12.7 mph 19.6 mph N/A   Overcast
2:16 AM 48.2 °F - 44.6 °F 87% 30.17 in 10.0 mi East 9.2 mph - N/A   Overcast
2:53 AM 48.0 °F - 45.0 °F 89% 30.15 in 10.0 mi ENE 5.8 mph - N/A   Overcast
3:53 AM 48.0 °F - 45.0 °F 89% 30.10 in 10.0 mi ENE 15.0 mph 20.7 mph N/A   Overcast
4:36 AM 46.4 °F 42.9 °F 44.6 °F 93% 30.09 in 10.0 mi ENE 6.9 mph - N/A   Overcast
4:53 AM 46.9 °F - 44.1 °F 90% 30.08 in 10.0 mi East 9.2 mph - N/A   Overcast
5:53 AM 46.9 °F - 45.0 °F 93% 30.06 in 10.0 mi ENE 4.6 mph - N/A   Overcast
6:53 AM 48.9 °F - 46.0 °F 90% 30.04 in 10.0 mi ENE 8.1 mph - N/A   Overcast
7:53 AM 48.9 °F - 46.9 °F 93% 30.04 in 10.0 mi NE 3.5 mph - N/A   Overcast
8:44 AM 48.2 °F - 46.4 °F 93% 30.04 in 6.0 mi ENE 3.5 mph - 0.00 in   Overcast
8:53 AM 48.0 °F - 46.9 °F 96% 30.04 in 9.0 mi Variable 3.5 mph - 0.00 in   Overcast
9:46 AM 48.2 °F - 48.2 °F 100% 30.01 in 3.0 mi Calm Calm - N/A Rain Light Rain
9:51 AM 48.2 °F - 48.2 °F 100% 30.01 in 1.8 mi Calm Calm - 0.01 in Rain Light Rain
9:53 AM 48.9 °F - 48.0 °F 97% 30.01 in 1.8 mi Calm Calm - 0.01 in Rain Light Rain
10:13 AM 48.2 °F - 48.2 °F 100% 30.01 in 5.0 mi Calm Calm - 0.00 in   Overcast
10:31 AM 50.0 °F - 48.2 °F 94% 29.98 in 10.0 mi ENE 8.1 mph - 0.01 in   Overcast
10:42 AM 51.8 °F - 48.2 °F 88% 29.98 in 10.0 mi East 8.1 mph - 0.01 in   Overcast
10:53 AM 51.1 °F - 50.0 °F 96% 29.97 in 10.0 mi East 9.2 mph - 0.01 in   Overcast
11:53 AM 55.0 °F - 52.0 °F 89% 29.92 in 10.0 mi East 6.9 mph - N/A   Overcast
12:53 PM 57.9 °F - 53.1 °F 84% 29.88 in 10.0 mi Calm Calm - N/A   Overcast
1:53 PM 60.1 °F - 55.0 °F 83% 29.83 in 9.0 mi SSE 8.1 mph 17.3 mph N/A   Overcast
2:53 PM 60.1 °F - 55.9 °F 86% 29.82 in 10.0 mi South 11.5 mph 17.3 mph 0.00 in Rain Light Rain
3:53 PM 57.9 °F - 55.9 °F 93% 29.83 in 10.0 mi SSW 9.2 mph - 0.01 in Rain Light Rain
4:53 PM 57.0 °F - 55.9 °F 96% 29.84 in 10.0 mi SW 6.9 mph - 0.02 in   Overcast
5:53 PM 55.0 °F - 53.1 °F 93% 29.86 in 10.0 mi SW 9.2 mph - 0.00 in Rain Light Rain
6:53 PM 52.0 °F - 52.0 °F 100% 29.86 in 10.0 mi Calm Calm - 0.04 in   Mostly Cloudy
7:53 PM 48.9 °F - 48.9 °F 100% 29.87 in 10.0 mi SW 5.8 mph - N/A   Clear
8:53 PM 51.1 °F - 48.0 °F 89% 29.88 in 10.0 mi SSW 9.2 mph - N/A   Mostly Cloudy
9:53 PM 51.1 °F - 45.0 °F 80% 29.88 in 10.0 mi SSW 9.2 mph 19.6 mph N/A   Overcast
10:53 PM 50.0 °F - 45.0 °F 83% 29.88 in 10.0 mi SSW 15.0 mph 21.9 mph N/A   Overcast